Time,TemperatureF,DewpointF,PressureIn,WindDirection,WindDirectionDegrees,WindSpeedMPH,WindSpeedGustMPH,Humidity,HourlyPrecipIn,Conditions,Clouds,dailyrainin,SoftwareType,DateUTC
2013-05-06 00:01:00,56.0,52.0,29.79,SSW,210,0.0,-999.0,86,-99.99,,,-99.99,,2013-05-06 07:01:00,
2013-05-06 00:11:00,56.0,52.0,29.79,SSW,210,0.0,-999.0,86,-99.99,,,-99.99,,2013-05-06 07:11:00,
2013-05-06 00:22:00,56.0,52.0,29.79,SSW,210,0.0,-999.0,86,-99.99,,,-99.99,,2013-05-06 07:22:00,
2013-05-06 00:31:00,56.0,53.0,29.80,SSW,210,0.0,-999.0,89,-99.99,,,-99.99,,2013-05-06 07:31:00,
2013-05-06 00:41:00,56.0,53.0,29.80,SSW,210,0.0,-999.0,89,-99.99,,,-99.99,,2013-05-06 07:41:00,
2013-05-06 00:52:00,56.0,52.0,29.79,SSW,210,0.0,-999.0,87,-99.99,,,-99.99,,2013-05-06 07:52:00,
2013-05-06 01:01:00,56.0,52.0,29.78,SSW,210,0.0,-999.0,87,-99.99,,,-99.99,,2013-05-06 08:01:00,
2013-05-06 01:11:00,56.0,52.0,29.78,SSW,210,0.0,-999.0,87,-99.99,,,-99.99,,2013-05-06 08:11:00,
2013-05-06 01:21:00,56.0,52.0,29.78,SSW,210,0.0,-999.0,88,-99.99,,,-99.99,,2013-05-06 08:21:00,
2013-05-06 01:31:00,56.0,52.0,29.78,SSW,210,0.0,-999.0,87,-99.99,,,-99.99,,2013-05-06 08:31:00,
2013-05-06 01:41:00,56.0,52.0,29.78,SSW,210,0.0,-999.0,87,-99.99,,,-99.99,,2013-05-06 08:41:00,
2013-05-06 01:52:00,56.0,52.0,29.78,SSW,210,0.0,-999.0,88,-99.99,,,-99.99,,2013-05-06 08:52:00,
2013-05-06 02:01:00,56.0,53.0,29.78,SSW,210,0.0,-999.0,89,-99.99,,,-99.99,,2013-05-06 09:01:00,
2013-05-06 02:11:00,56.0,53.0,29.78,SSW,210,0.0,-999.0,89,-99.99,,,-99.99,,2013-05-06 09:11:00,
2013-05-06 02:22:00,56.0,53.0,29.77,SSW,210,0.0,-999.0,89,-99.99,,,-99.99,,2013-05-06 09:22:00,
2013-05-06 02:32:00,56.0,53.0,29.77,SSW,210,0.0,-999.0,89,-99.99,,,-99.99,,2013-05-06 09:32:00,
2013-05-06 02:42:00,56.0,53.0,29.77,SSW,210,0.0,-999.0,89,-99.99,,,-99.99,,2013-05-06 09:42:00,
2013-05-06 02:53:00,56.0,53.0,29.76,SSW,210,0.0,-999.0,89,-99.99,,,-99.99,,2013-05-06 09:53:00,
2013-05-06 03:02:00,55.0,52.0,29.76,SSW,210,0.0,-999.0,89,-99.99,,,-99.99,,2013-05-06 10:02:00,
2013-05-06 03:12:00,55.0,52.0,29.76,SSW,210,0.0,-999.0,89,-99.99,,,-99.99,,2013-05-06 10:12:00,
2013-05-06 03:22:00,55.0,52.0,29.76,SSW,210,0.0,-999.0,89,-99.99,,,-99.99,,2013-05-06 10:22:00,
2013-05-06 03:32:00,55.0,52.0,29.75,SSW,210,0.0,-999.0,90,-99.99,,,-99.99,,2013-05-06 10:32:00,
2013-05-06 03:41:00,55.0,52.0,29.75,SSW,210,0.0,-999.0,90,-99.99,,,-99.99,,2013-05-06 10:41:00,
2013-05-06 03:52:00,55.0,52.0,29.75,SSW,210,0.0,-999.0,90,-99.99,,,-99.99,,2013-05-06 10:52:00,
2013-05-06 04:02:00,55.0,52.0,29.75,SSW,210,0.0,-999.0,90,-99.99,,,-99.99,,2013-05-06 11:02:00,
2013-05-06 04:11:00,55.0,52.0,29.75,SSW,210,0.0,-999.0,90,-99.99,,,-99.99,,2013-05-06 11:11:00,
2013-05-06 04:22:00,55.0,52.0,29.75,SSW,210,0.0,-999.0,90,-99.99,,,-99.99,,2013-05-06 11:22:00,
2013-05-06 04:31:00,55.0,52.0,29.74,SSW,210,0.0,-999.0,91,-99.99,,,-99.99,,2013-05-06 11:31:00,
2013-05-06 04:41:00,55.0,52.0,29.74,SSW,210,0.0,-999.0,91,-99.99,,,-99.99,,2013-05-06 11:41:00,
2013-05-06 04:52:00,55.0,53.0,29.74,SSW,210,0.0,-999.0,92,-99.99,,,-99.99,,2013-05-06 11:52:00,
2013-05-06 05:01:00,55.0,53.0,29.75,SSW,210,0.0,-999.0,92,-99.99,,,-99.99,,2013-05-06 12:01:00,
2013-05-06 05:12:00,55.0,53.0,29.75,SSW,210,0.0,-999.0,92,-99.99,,,-99.99,,2013-05-06 12:12:00,
2013-05-06 05:21:00,55.0,53.0,29.75,SSW,210,0.0,-999.0,92,-99.99,,,-99.99,,2013-05-06 12:21:00,
2013-05-06 05:31:00,55.0,53.0,29.75,SSW,210,0.0,-999.0,93,-99.99,,,-99.99,,2013-05-06 12:31:00,
2013-05-06 05:41:00,55.0,53.0,29.75,SSW,210,0.0,-999.0,93,-99.99,,,-99.99,,2013-05-06 12:41:00,
2013-05-06 05:52:00,55.0,53.0,29.75,SSW,210,0.0,-999.0,93,-99.99,,,-99.99,,2013-05-06 12:52:00,
2013-05-06 06:01:00,55.0,53.0,29.75,SSW,210,0.0,-999.0,93,-99.99,,,-99.99,,2013-05-06 13:01:00,
2013-05-06 06:11:00,55.0,53.0,29.75,SSW,210,0.0,-999.0,93,-99.99,,,-99.99,,2013-05-06 13:11:00,
2013-05-06 06:21:00,55.0,53.0,29.77,SSW,210,0.0,-999.0,93,-99.99,,,-99.99,,2013-05-06 13:21:00,
2013-05-06 06:31:00,55.0,53.0,29.77,SSW,210,0.0,-999.0,93,-99.99,,,-99.99,,2013-05-06 13:31:00,
2013-05-06 06:42:00,55.0,53.0,29.77,SSW,210,0.0,-999.0,93,-99.99,,,-99.99,,2013-05-06 13:42:00,
2013-05-06 06:52:00,55.0,53.0,29.78,SSW,210,0.0,-999.0,94,-99.99,,,-99.99,,2013-05-06 13:52:00,
2013-05-06 07:01:00,55.0,53.0,29.78,SSW,210,0.0,-999.0,94,-99.99,,,-99.99,,2013-05-06 14:01:00,
2013-05-06 07:11:00,55.0,53.0,29.78,SSW,210,0.0,-999.0,94,-99.99,,,-99.99,,2013-05-06 14:11:00,
2013-05-06 07:21:00,55.0,53.0,29.79,SSW,210,0.0,-999.0,94,-99.99,,,-99.99,,2013-05-06 14:21:00,
2013-05-06 07:32:00,55.0,53.0,29.79,SSW,210,0.0,-999.0,94,-99.99,,,-99.99,,2013-05-06 14:32:00,
2013-05-06 07:42:00,55.0,53.0,29.79,SSW,210,0.0,-999.0,94,-99.99,,,-99.99,,2013-05-06 14:42:00,
2013-05-06 07:51:00,55.0,53.0,29.79,SSW,210,0.0,-999.0,94,-99.99,,,-99.99,,2013-05-06 14:51:00,
2013-05-06 08:01:00,56.0,55.0,29.79,SSW,210,0.0,-999.0,95,-99.99,,,-99.99,,2013-05-06 15:01:00,
2013-05-06 08:11:00,56.0,55.0,29.79,SSW,210,0.0,-999.0,95,-99.99,,,-99.99,,2013-05-06 15:11:00,
2013-05-06 08:21:00,56.0,55.0,29.80,SSW,210,0.0,-999.0,95,-99.99,,,-99.99,,2013-05-06 15:21:00,
2013-05-06 08:33:00,56.0,55.0,29.80,SSW,210,0.0,-999.0,95,-99.99,,,-99.99,,2013-05-06 15:33:00,
2013-05-06 08:42:00,56.0,55.0,29.80,SSW,210,0.0,-999.0,95,-99.99,,,-99.99,,2013-05-06 15:42:00,
2013-05-06 08:53:00,57.0,55.0,29.81,SSW,210,0.0,-999.0,94,-99.99,,,-99.99,,2013-05-06 15:53:00,
2013-05-06 09:02:00,57.0,55.0,29.81,SSW,210,0.0,-999.0,94,-99.99,,,-99.99,,2013-05-06 16:02:00,
2013-05-06 09:13:00,57.0,55.0,29.81,SSW,210,0.0,-999.0,94,-99.99,,,-99.99,,2013-05-06 16:13:00,
2013-05-06 09:22:00,57.0,55.0,29.82,SSW,194,0.0,-999.0,94,-99.99,,,-99.99,,2013-05-06 16:22:00,
2013-05-06 09:32:00,57.0,55.0,29.82,South,184,0.0,-999.0,94,-99.99,,,-99.99,,2013-05-06 16:32:00,
2013-05-06 09:41:00,57.0,55.0,29.82,South,184,0.0,-999.0,94,-99.99,,,-99.99,,2013-05-06 16:41:00,
2013-05-06 09:52:00,57.0,55.0,29.82,SSE,166,0.0,-999.0,92,-99.99,,,-99.99,,2013-05-06 16:52:00,
2013-05-06 10:02:00,57.0,55.0,29.82,SSE,166,0.0,-999.0,92,-99.99,,,-99.99,,2013-05-06 17:02:00,
2013-05-06 10:11:00,57.0,55.0,29.82,SSE,166,0.0,-999.0,92,-99.99,,,-99.99,,2013-05-06 17:11:00,
2013-05-06 10:22:00,58.0,56.0,29.82,SSE,164,0.0,-999.0,92,-99.99,,,-99.99,,2013-05-06 17:22:00,
2013-05-06 10:31:00,58.0,55.0,29.83,SSE,163,0.0,-999.0,91,-99.99,,,-99.99,,2013-05-06 17:31:00,
2013-05-06 10:42:00,58.0,55.0,29.83,SSE,163,0.0,-999.0,91,-99.99,,,-99.99,,2013-05-06 17:42:00,
2013-05-06 10:52:00,58.0,54.0,29.83,SSE,163,0.0,-999.0,86,-99.99,,,-99.99,,2013-05-06 17:52:00,
2013-05-06 11:01:00,58.0,54.0,29.84,WSW,239,0.0,-999.0,88,-99.99,,,-99.99,,2013-05-06 18:01:00,
2013-05-06 11:11:00,58.0,54.0,29.84,WSW,239,0.0,-999.0,88,-99.99,,,-99.99,,2013-05-06 18:11:00,
2013-05-06 11:21:00,58.0,55.0,29.84,WSW,249,0.0,-999.0,89,-99.99,,,-99.99,,2013-05-06 18:21:00,
2013-05-06 11:31:00,59.0,56.0,29.84,ESE,111,0.0,-999.0,89,-99.99,,,-99.99,,2013-05-06 18:31:00,
2013-05-06 11:42:00,59.0,56.0,29.84,ESE,111,0.0,-999.0,89,-99.99,,,-99.99,,2013-05-06 18:42:00,
2013-05-06 11:52:00,59.0,54.0,29.84,East,96,0.0,-999.0,84,-99.99,,,-99.99,,2013-05-06 18:52:00,
2013-05-06 12:01:00,60.0,54.0,29.84,NE,56,0.0,-999.0,81,-99.99,,,-99.99,,2013-05-06 19:01:00,
2013-05-06 12:11:00,60.0,54.0,29.84,NE,56,0.0,-999.0,81,-99.99,,,-99.99,,2013-05-06 19:11:00,
2013-05-06 12:21:00,62.0,53.0,29.83,East,91,0.0,-999.0,72,-99.99,,,-99.99,,2013-05-06 19:21:00,
2013-05-06 12:32:00,63.0,53.0,29.83,East,97,0.0,-999.0,70,-99.99,,,-99.99,,2013-05-06 19:32:00,
2013-05-06 12:41:00,63.0,53.0,29.83,East,97,0.0,-999.0,70,-99.99,,,-99.99,,2013-05-06 19:41:00,
2013-05-06 12:52:00,64.0,52.0,29.83,NNE,30,0.0,-999.0,64,-99.99,,,-99.99,,2013-05-06 19:52:00,
2013-05-06 13:01:00,64.0,51.0,29.82,ESE,114,0.0,-999.0,62,-99.99,,,-99.99,,2013-05-06 20:01:00,
2013-05-06 13:11:00,64.0,51.0,29.82,ESE,114,0.0,-999.0,62,-99.99,,,-99.99,,2013-05-06 20:11:00,
2013-05-06 13:21:00,64.0,51.0,29.82,ENE,76,0.0,-999.0,62,-99.99,,,-99.99,,2013-05-06 20:21:00,
2013-05-06 13:32:00,65.0,52.0,29.82,East,88,0.0,-999.0,63,-99.99,,,-99.99,,2013-05-06 20:32:00,
2013-05-06 13:41:00,65.0,52.0,29.82,East,88,0.0,-999.0,63,-99.99,,,-99.99,,2013-05-06 20:41:00,
2013-05-06 13:52:00,65.0,53.0,29.82,ENE,59,0.0,-999.0,64,-99.99,,,-99.99,,2013-05-06 20:52:00,
2013-05-06 14:01:00,64.0,53.0,29.83,East,91,1.0,-999.0,67,-99.99,,,-99.99,,2013-05-06 21:01:00,
2013-05-06 14:11:00,64.0,53.0,29.83,East,91,1.0,-999.0,67,-99.99,,,-99.99,,2013-05-06 21:11:00,
2013-05-06 14:21:00,63.0,52.0,29.83,ESE,106,1.0,-999.0,68,-99.99,,,-99.99,,2013-05-06 21:21:00,
2013-05-06 14:32:00,65.0,52.0,29.82,ESE,103,0.0,-999.0,63,-99.99,,,-99.99,,2013-05-06 21:32:00,
2013-05-06 14:42:00,65.0,52.0,29.82,ESE,103,0.0,-999.0,63,-99.99,,,-99.99,,2013-05-06 21:42:00,
2013-05-06 14:53:00,66.0,52.0,29.83,NE,46,1.0,-999.0,61,-99.99,,,-99.99,,2013-05-06 21:53:00,
2013-05-06 15:02:00,66.0,52.0,29.83,ENE,58,1.0,-999.0,60,-99.99,,,-99.99,,2013-05-06 22:02:00,
2013-05-06 15:12:00,66.0,52.0,29.83,ENE,58,1.0,-999.0,60,-99.99,,,-99.99,,2013-05-06 22:12:00,
2013-05-06 15:22:00,64.0,53.0,29.83,ENE,64,0.0,-999.0,68,-99.99,,,-99.99,,2013-05-06 22:22:00,
2013-05-06 15:33:00,63.0,52.0,29.83,ESE,123,0.0,-999.0,67,-99.99,,,-99.99,,2013-05-06 22:33:00,
2013-05-06 15:45:00,63.0,52.0,29.83,ESE,123,0.0,-999.0,67,-99.99,,,-99.99,,2013-05-06 22:45:00,
2013-05-06 15:52:00,62.0,52.0,29.83,ESE,121,0.0,-999.0,70,-99.99,,,-99.99,,2013-05-06 22:52:00,
2013-05-06 16:02:00,62.0,52.0,29.83,East,100,1.0,-999.0,71,-99.99,,,-99.99,,2013-05-06 23:02:00,
2013-05-06 16:11:00,62.0,52.0,29.83,East,100,1.0,-999.0,71,-99.99,,,-99.99,,2013-05-06 23:11:00,
2013-05-06 16:22:00,62.0,52.0,29.82,East,97,0.0,-999.0,70,-99.99,,,-99.99,,2013-05-06 23:22:00,
2013-05-06 16:31:00,62.0,51.0,29.82,ESE,119,0.0,-999.0,68,-99.99,,,-99.99,,2013-05-06 23:31:00,
2013-05-06 16:41:00,62.0,51.0,29.82,ESE,119,0.0,-999.0,68,-99.99,,,-99.99,,2013-05-06 23:41:00,
2013-05-06 16:52:00,62.0,51.0,29.82,East,96,0.0,-999.0,66,-99.99,,,-99.99,,2013-05-06 23:52:00,
2013-05-06 17:01:00,62.0,50.0,29.83,ESE,111,1.0,-999.0,64,-99.99,,,-99.99,,2013-05-07 00:01:00,
2013-05-06 17:11:00,62.0,50.0,29.83,ESE,111,1.0,-999.0,64,-99.99,,,-99.99,,2013-05-07 00:11:00,
2013-05-06 17:21:00,63.0,50.0,29.82,ENE,77,1.0,-999.0,63,-99.99,,,-99.99,,2013-05-07 00:21:00,
2013-05-06 17:31:00,64.0,50.0,29.82,ESE,117,1.0,-999.0,61,-99.99,,,-99.99,,2013-05-07 00:31:00,
2013-05-06 17:41:00,64.0,50.0,29.82,ESE,117,1.0,-999.0,61,-99.99,,,-99.99,,2013-05-07 00:41:00,
2013-05-06 17:52:00,65.0,50.0,29.82,NE,48,0.0,-999.0,59,-99.99,,,-99.99,,2013-05-07 00:52:00,
2013-05-06 18:01:00,66.0,50.0,29.81,East,83,0.0,-999.0,56,-99.99,,,-99.99,,2013-05-07 01:01:00,
2013-05-06 18:11:00,66.0,50.0,29.81,East,83,0.0,-999.0,56,-99.99,,,-99.99,,2013-05-07 01:11:00,
2013-05-06 18:21:00,66.0,50.0,29.81,ESE,114,0.0,-999.0,56,-99.99,,,-99.99,,2013-05-07 01:21:00,
2013-05-06 18:31:00,66.0,50.0,29.81,East,88,0.0,-999.0,57,-99.99,,,-99.99,,2013-05-07 01:31:00,
2013-05-06 18:41:00,66.0,50.0,29.81,East,88,0.0,-999.0,57,-99.99,,,-99.99,,2013-05-07 01:41:00,
2013-05-06 18:52:00,66.0,50.0,29.81,East,92,0.0,-999.0,57,-99.99,,,-99.99,,2013-05-07 01:52:00,
2013-05-06 19:01:00,65.0,50.0,29.81,ESE,112,0.0,-999.0,58,-99.99,,,-99.99,,2013-05-07 02:01:00,
2013-05-06 19:11:00,65.0,50.0,29.81,ESE,112,0.0,-999.0,58,-99.99,,,-99.99,,2013-05-07 02:11:00,
2013-05-06 19:21:00,63.0,50.0,29.81,ESE,122,0.0,-999.0,62,-99.99,,,-99.99,,2013-05-07 02:21:00,
2013-05-06 19:31:00,62.0,49.0,29.82,ESE,121,0.0,-999.0,63,-99.99,,,-99.99,,2013-05-07 02:31:00,
2013-05-06 19:41:00,62.0,49.0,29.82,ESE,121,0.0,-999.0,63,-99.99,,,-99.99,,2013-05-07 02:41:00,
2013-05-06 19:52:00,61.0,49.0,29.83,ESE,108,0.0,-999.0,65,-99.99,,,-99.99,,2013-05-07 02:52:00,
2013-05-06 20:01:00,61.0,50.0,29.83,ESE,107,0.0,-999.0,66,-99.99,,,-99.99,,2013-05-07 03:01:00,
2013-05-06 20:11:00,61.0,50.0,29.83,ESE,107,0.0,-999.0,66,-99.99,,,-99.99,,2013-05-07 03:11:00,
2013-05-06 20:21:00,61.0,50.0,29.83,ESE,107,0.0,-999.0,67,-99.99,,,-99.99,,2013-05-07 03:21:00,
2013-05-06 20:32:00,60.0,49.0,29.84,ESE,107,0.0,-999.0,67,-99.99,,,-99.99,,2013-05-07 03:32:00,
2013-05-06 20:42:00,60.0,49.0,29.84,ESE,107,0.0,-999.0,67,-99.99,,,-99.99,,2013-05-07 03:42:00,
2013-05-06 20:53:00,60.0,49.0,29.84,ESE,108,0.0,-999.0,68,-99.99,,,-99.99,,2013-05-07 03:53:00,
2013-05-06 21:02:00,60.0,50.0,29.85,ESE,109,0.0,-999.0,69,-99.99,,,-99.99,,2013-05-07 04:02:00,
2013-05-06 21:12:00,60.0,50.0,29.85,ESE,109,0.0,-999.0,69,-99.99,,,-99.99,,2013-05-07 04:12:00,
2013-05-06 21:23:00,60.0,51.0,29.85,ESE,108,0.0,-999.0,71,-99.99,,,-99.99,,2013-05-07 04:23:00,
2013-05-06 21:32:00,59.0,50.0,29.86,ESE,107,0.0,-999.0,71,-99.99,,,-99.99,,2013-05-07 04:32:00,
2013-05-06 21:42:00,59.0,50.0,29.86,ESE,107,0.0,-999.0,71,-99.99,,,-99.99,,2013-05-07 04:42:00,
2013-05-06 21:53:00,59.0,50.0,29.86,ESE,107,0.0,-999.0,73,-99.99,,,-99.99,,2013-05-07 04:53:00,
2013-05-06 22:02:00,59.0,51.0,29.87,ESE,107,0.0,-999.0,74,-99.99,,,-99.99,,2013-05-07 05:02:00,
2013-05-06 22:12:00,59.0,51.0,29.87,ESE,107,0.0,-999.0,74,-99.99,,,-99.99,,2013-05-07 05:12:00,
2013-05-06 22:22:00,59.0,51.0,29.87,ESE,107,0.0,-999.0,75,-99.99,,,-99.99,,2013-05-07 05:22:00,
2013-05-06 22:32:00,58.0,50.0,29.87,ESE,107,0.0,-999.0,76,-99.99,,,-99.99,,2013-05-07 05:32:00,
2013-05-06 22:42:00,58.0,50.0,29.87,ESE,107,0.0,-999.0,76,-99.99,,,-99.99,,2013-05-07 05:42:00,
2013-05-06 22:52:00,58.0,50.0,29.88,ESE,107,0.0,-999.0,76,-99.99,,,-99.99,,2013-05-07 05:52:00,
2013-05-06 23:02:00,58.0,51.0,29.88,ESE,107,0.0,-999.0,77,-99.99,,,-99.99,,2013-05-07 06:02:00,
2013-05-06 23:11:00,58.0,51.0,29.88,ESE,107,0.0,-999.0,77,-99.99,,,-99.99,,2013-05-07 06:11:00,
2013-05-06 23:21:00,58.0,51.0,29.88,ESE,107,0.0,-999.0,77,-99.99,,,-99.99,,2013-05-07 06:21:00,
2013-05-06 23:32:00,57.0,50.0,29.88,ESE,107,0.0,-999.0,78,-99.99,,,-99.99,,2013-05-07 06:32:00,
2013-05-06 23:41:00,57.0,50.0,29.88,ESE,107,0.0,-999.0,78,-99.99,,,-99.99,,2013-05-07 06:41:00,
2013-05-06 23:52:00,57.0,51.0,29.88,ESE,107,0.0,-999.0,79,-99.99,,,-99.99,,2013-05-07 06:52:00,